Weather History for KLRF - November, 2012

Change the Weather History Date:

Monday, November 5, 2012

  Actual Average Record
Temperature  
Mean Temperature 46 °F -  
Max Temperature 54 °F 62 °F 82 °F (1978)
Min Temperature 38 °F 40 °F 20 °F (1976)
Degree Days  
Heating Degree Days 19    
Moisture  
Dew Point 44 °F    
Average Humidity 88    
Maximum Humidity 95    
Minimum Humidity 71    
Precipitation  
Precipitation 0.07 in - - ()
Sea Level Pressure  
Sea Level Pressure 30.06 in    
Wind  
Wind Speed 2 mph (ENE)    
Max Wind Speed 9 mph    
Max Gust Speed -    
Visibility 8 miles    
Events Rain    
Averages and records for this station are not official NWS values.
T = Trace of Precipitation, MM = Missing Value Source: NWS Daily Summary

Daily Weather History Graph

Daily Weather History Graph

Search for Another Location

Airport or City:

Trip Planner

Search our weather history database for the weather conditions in past years. The results will help you decide how hot, cold, wet, or windy it might be!

Date:

Astronomy

Nov. 05, 2012 Rise Set
Actual Time 6:33 AM CST 5:10 PM CST
Civil Twilight 6:07 AM CST 5:36 PM CST
Nautical Twilight 5:37 AM CST 6:06 PM CST
Astronomical Twilight 5:07 AM CST 6:36 PM CST
Moon 10:47 PM CST (11/5) 11:52 AM CST (11/5)
Length of Visible Light 11h 29m
Length of Day
10h 36m
Waning Gibbous, 62% of the Moon is Illuminated
Nov 5
Waning Gibbous
Nov 6
Last Quarter
Nov 13
New
Nov 20
First Quarter
Nov 28
Full

Hourly Weather History & Observations

Time (CST) Temp. Windchill Dew Point Humidity Pressure Visibility Wind Dir Wind Speed Gust Speed Precip Events Conditions
12:01 AM 39.2 °F - 37.4 °F 93% 30.14 in 2.5 mi Calm Calm - N/A   Clear
12:03 AM 39.2 °F - 37.4 °F 93% 30.14 in 3.0 mi Calm Calm - N/A   Clear
12:55 AM 38.7 °F - 36.3 °F 91% 30.13 in 3.0 mi Calm Calm - N/A   Partly Cloudy
1:36 AM 39.2 °F - 37.4 °F 93% 30.12 in 2.5 mi Calm Calm - N/A   Clear
1:43 AM 39.2 °F - 37.4 °F 93% 30.12 in 3.0 mi Calm Calm - N/A   Clear
1:55 AM 40.3 °F - 37.6 °F 90% 30.12 in 5.0 mi Calm Calm - N/A   Partly Cloudy
2:29 AM 41.0 °F 39.0 °F 39.2 °F 93% 30.12 in 2.5 mi West 3.5 mph - N/A   Mostly Cloudy
2:33 AM 41.0 °F 39.0 °F 39.2 °F 93% 30.12 in 3.0 mi West 3.5 mph - N/A   Overcast
2:55 AM 41.7 °F - 39.2 °F 91% 30.12 in 6.0 mi Calm Calm - N/A   Overcast
3:55 AM 41.9 °F 40.0 °F 39.7 °F 92% 30.09 in 10.0 mi East 3.5 mph - N/A   Overcast
4:55 AM 42.8 °F - 40.1 °F 90% 30.11 in 10.0 mi Calm Calm - N/A   Scattered Clouds
5:55 AM 43.9 °F - 40.3 °F 87% 30.08 in 10.0 mi Calm Calm - N/A   Mostly Cloudy
6:55 AM 44.6 °F - 39.9 °F 84% 30.09 in 10.0 mi Calm Calm - N/A   Mostly Cloudy
7:55 AM 46.2 °F - 40.3 °F 80% 30.08 in 10.0 mi Calm Calm - N/A   Overcast
8:55 AM 49.1 °F - 40.8 °F 73% 30.09 in 10.0 mi Calm Calm - N/A   Overcast
9:44 AM 50.0 °F - 41.0 °F 71% 30.08 in 10.0 mi Calm Calm - N/A Rain Light Rain
9:55 AM 50.4 °F - 41.5 °F 72% 30.08 in 10.0 mi Calm Calm - 0.00 in   Light Drizzle
10:14 AM 50.0 °F - 41.0 °F 71% 30.08 in 10.0 mi Calm Calm - N/A Rain Light Rain
10:55 AM 48.7 °F - 45.0 °F 87% 30.07 in 8.0 mi East 3.5 mph - 0.03 in Rain Light Rain
11:26 AM 48.2 °F - 46.4 °F 93% 30.07 in 6.0 mi NNE 9.2 mph - N/A   Overcast
11:28 AM 48.2 °F - 46.4 °F 93% 30.06 in 6.0 mi NNE 5.8 mph - N/A   Light Drizzle
11:39 AM 48.2 °F - 46.4 °F 93% 30.05 in 4.0 mi ENE 9.2 mph - N/A   Overcast
11:55 AM 48.9 °F - 46.4 °F 91% 30.05 in 10.0 mi ENE 5.8 mph - 0.01 in   Overcast
12:15 PM 48.2 °F - 46.4 °F 93% 30.02 in 10.0 mi East 9.2 mph - N/A Rain Light Rain
12:27 PM 48.2 °F - 46.4 °F 93% 30.02 in 10.0 mi East 6.9 mph - N/A   Mostly Cloudy
12:55 PM 49.3 °F - 45.5 °F 87% 30.02 in 10.0 mi ENE 4.6 mph - 0.00 in   Overcast
1:55 PM 51.3 °F - 45.5 °F 81% 30.00 in 10.0 mi East 6.9 mph - N/A   Overcast
2:55 PM 53.2 °F - 46.4 °F 78% 29.97 in 10.0 mi SE 5.8 mph - N/A   Scattered Clouds
3:55 PM 54.5 °F - 46.6 °F 75% 29.98 in 10.0 mi East 5.8 mph - N/A   Partly Cloudy
4:55 PM 51.8 °F - 46.4 °F 82% 29.99 in 10.0 mi ENE 4.6 mph - N/A   Clear
5:20 PM 51.8 °F - 46.4 °F 82% 30.00 in 10.0 mi East 4.6 mph - N/A Rain Light Rain
5:55 PM 50.4 °F - 48.0 °F 92% 30.01 in 9.0 mi Calm Calm - 0.02 in Rain Light Rain
6:24 PM 50.0 °F - 48.2 °F 94% 30.03 in 10.0 mi Calm Calm - N/A   Overcast
6:55 PM 49.5 °F - 47.8 °F 94% 30.03 in 10.0 mi NE 3.5 mph - 0.01 in   Mostly Cloudy
7:39 PM 50.0 °F - 48.2 °F 94% 30.04 in 10.0 mi Calm Calm - N/A   Light Drizzle
7:55 PM 49.3 °F - 47.8 °F 95% 30.04 in 10.0 mi Calm Calm - 0.00 in   Light Drizzle
8:38 PM 50.0 °F - 48.2 °F 94% 30.05 in 10.0 mi Calm Calm - N/A   Mostly Cloudy
8:55 PM 49.3 °F - 47.7 °F 94% 30.05 in 10.0 mi NNW 4.6 mph - N/A   Mostly Cloudy
9:55 PM 49.1 °F - 47.5 °F 94% 30.04 in 10.0 mi Calm Calm - N/A   Overcast
10:23 PM 50.0 °F - 48.2 °F 94% 30.04 in 10.0 mi Calm Calm - N/A   Mostly Cloudy
10:48 PM 50.0 °F - 48.2 °F 94% 30.04 in 10.0 mi NNE 4.6 mph - N/A   Overcast
10:55 PM 49.3 °F - 47.7 °F 94% 30.04 in 10.0 mi NNE 3.5 mph - N/A   Mostly Cloudy
11:55 PM 49.1 °F - 46.9 °F 92% 30.04 in 10.0 mi Calm Calm - N/A   Overcast